Date String (YYYY-MM-DD hh:mm:ss) UTC,Instrument flags,absolute air pressure of the measurement (hPa),sample flow rate (lpm),inlet stack bypass flow (lpm),air temperature of the measurement (°C),ambient temperature measured by the external sensor (°C),aerosol sample conditioner tube jacket temperature (°C),OPC LED temperature (°C),internal box temperature (°C),relative humidity of the measurement (%),span deviation,mass concentration of particles derived from Lorenz-Mie calculation of OPC scattering (μg/m³),mass concentration of particles derived from Lorenz-Mie calculation of OPC scattering (μg/m³),mass concentration of particles derived from Lorenz-Mie calculation of OPC scattering (μg/m³)
DateTimeUTC,F1_M11,P_M11,Q1_M11,Q2_M11,T1_M11,T2_M11,T3_M11,T4_M11,T5_M11,U1_M11,ZSPAN_M11,X2_M11,X0_M11,X1_M11
2023-09-30 23:00:00,SystemResetWarning,0825.5,4.99,000.00,027.9,026.1,000.0,036.3,029.7,15.8,0000.0,0006.71,0019.66,0004.89
2023-09-30 23:01:00,SystemResetWarning,0825.5,5.00,000.00,027.9,026.4,000.0,036.4,029.8,15.7,0000.0,0006.59,0019.27,0004.85
2023-09-30 23:02:00,SystemResetWarning,0825.4,5.01,000.00,028.0,026.7,000.0,036.4,029.8,15.4,0000.0,0006.45,0017.88,0004.82
2023-09-30 23:03:00,SystemResetWarning,0825.4,5.00,000.00,028.0,026.9,000.0,036.4,029.9,15.3,0000.0,0006.35,0017.61,0004.79
2023-09-30 23:04:00,SystemResetWarning,0825.4,5.01,000.00,028.1,027.1,000.0,036.4,030.0,15.3,0000.0,0006.34,0017.72,0004.79
2023-09-30 23:05:00,SystemResetWarning,0825.4,4.99,000.00,028.1,026.5,000.0,036.4,030.0,15.6,0000.0,0006.31,0017.43,0004.78
2023-09-30 23:06:00,SystemResetWarning,0825.3,4.99,000.00,028.1,024.8,000.0,036.4,029.8,15.9,0000.0,0006.26,0016.76,0004.77
2023-09-30 23:07:00,SystemResetWarning,0825.4,5.01,000.00,028.0,024.2,000.0,036.3,029.6,15.7,0000.0,0006.23,0016.87,0004.78
2023-09-30 23:08:00,SystemResetWarning,0825.3,5.01,000.00,027.9,024.5,000.0,036.3,029.5,15.5,0000.0,0006.22,0016.18,0004.78
2023-09-30 23:09:00,SystemResetWarning,0825.3,4.99,000.00,027.9,024.9,000.0,036.3,029.5,15.6,0000.0,0006.10,0015.84,0004.76
2023-09-30 23:10:00,SystemResetWarning,0825.3,5.00,000.00,027.9,025.3,000.0,036.3,029.6,15.8,0000.0,0006.04,0016.56,0004.77
2023-09-30 23:11:00,SystemResetWarning,0825.3,5.00,000.00,027.9,025.7,000.0,036.3,029.6,16.0,0000.0,0006.04,0016.76,0004.78
2023-09-30 23:12:00,SystemResetWarning,0825.3,5.00,000.00,027.9,026.1,000.0,036.3,029.7,15.9,0000.0,0006.02,0016.14,0004.78
2023-09-30 23:13:00,SystemResetWarning,0825.3,5.00,000.00,028.0,026.4,000.0,036.4,029.8,16.0,0000.0,0006.05,0017.21,0004.77
2023-09-30 23:14:00,SystemResetWarning,0825.4,5.00,000.00,028.0,026.7,000.0,036.4,029.9,16.1,0000.0,0006.03,0017.11,0004.77
2023-09-30 23:15:00,SystemResetWarning,0825.4,5.00,000.00,028.1,026.9,000.0,036.4,029.9,15.9,0000.0,0006.01,0018.50,0004.75
2023-09-30 23:16:00,SystemResetWarning,0825.4,5.00,000.00,028.1,027.0,000.0,036.4,030.0,15.9,0000.0,0005.96,0018.50,0004.72
2023-09-30 23:17:00,SystemResetWarning,0825.4,4.99,000.00,028.1,026.0,000.0,036.4,030.0,15.8,0000.0,0005.96,0018.86,0004.71
2023-09-30 23:18:00,SystemResetWarning,0825.4,5.00,000.00,028.1,024.4,000.0,036.4,029.7,15.9,0000.0,0005.94,0019.62,0004.69
2023-09-30 23:19:00,SystemResetWarning,0825.4,5.01,000.00,028.0,024.2,000.0,036.3,029.6,16.0,0000.0,0005.82,0019.65,0004.67
2023-09-30 23:20:00,SystemResetWarning,0825.4,5.01,000.00,027.9,024.5,000.0,036.3,029.5,16.0,0000.0,0005.81,0019.56,0004.66
2023-09-30 23:21:00,SystemResetWarning,0825.4,5.00,000.00,027.9,024.9,000.0,036.3,029.5,16.3,0000.0,0005.81,0018.94,0004.66
2023-09-30 23:22:00,SystemResetWarning,0825.4,5.00,000.00,027.9,025.3,000.0,036.3,029.6,16.3,0000.0,0005.77,0018.95,0004.65
2023-09-30 23:23:00,SystemResetWarning,0825.4,5.00,000.00,027.9,025.8,000.0,036.3,029.6,16.3,0000.0,0005.73,0019.39,0004.65
2023-09-30 23:24:00,SystemResetWarning,0825.4,5.00,000.00,027.9,026.1,000.0,036.4,029.7,16.6,0000.0,0005.71,0019.80,0004.61
2023-09-30 23:25:00,SystemResetWarning,0825.4,5.00,000.00,028.0,026.4,000.0,036.4,029.8,16.4,0000.0,0005.75,0023.82,0004.49
2023-09-30 23:26:00,SystemResetWarning,0825.4,5.00,000.00,028.0,026.7,000.0,036.4,029.9,16.4,0000.0,0005.71,0023.24,0004.37
2023-09-30 23:27:00,SystemResetWarning,0825.5,5.00,000.00,028.1,026.9,000.0,036.4,030.0,16.4,0000.0,0005.54,0022.59,0004.21
2023-09-30 23:28:00,SystemResetWarning,0825.5,5.00,000.00,028.1,027.1,000.0,036.4,030.0,16.4,0000.0,0005.37,0022.74,0004.05
2023-09-30 23:29:00,SystemResetWarning,0825.5,5.00,000.00,028.2,027.1,000.0,036.5,030.1,16.4,0000.0,0005.16,0021.35,0003.88
2023-09-30 23:30:00,SystemResetWarning,0825.5,4.99,000.00,028.2,025.7,000.0,036.4,030.0,16.5,0000.0,0004.95,0020.94,0003.70
2023-09-30 23:31:00,SystemResetWarning,0825.4,5.00,000.00,028.1,024.3,000.0,036.4,029.7,16.5,0000.0,0004.79,0020.70,0003.53
2023-09-30 23:32:00,SystemResetWarning,0825.5,5.01,000.00,028.0,024.2,000.0,036.3,029.6,16.5,0000.0,0004.58,0020.96,0003.36
2023-09-30 23:33:00,SystemResetWarning,0825.5,5.01,000.00,027.9,024.5,000.0,036.3,029.5,16.6,0000.0,0004.38,0020.49,0003.19
2023-09-30 23:34:00,SystemResetWarning,0825.5,5.00,000.00,027.9,024.9,000.0,036.3,029.5,16.8,0000.0,0004.19,0020.07,0002.97
2023-09-30 23:35:00,SystemResetWarning,0825.5,5.00,000.00,027.9,025.4,000.0,036.3,029.6,16.9,0000.0,0003.94,0019.62,0002.71
2023-09-30 23:36:00,SystemResetWarning,0825.5,5.00,000.00,027.9,025.8,000.0,036.4,029.7,17.0,0000.0,0003.68,0014.54,0002.65
2023-09-30 23:37:00,SystemResetWarning,0825.5,5.00,000.00,027.9,026.1,000.0,036.4,029.7,17.1,0000.0,0003.56,0013.12,0002.63
2023-09-30 23:38:00,SystemResetWarning,0825.6,4.99,000.00,028.0,026.4,000.0,036.4,029.8,16.9,0000.0,0003.54,0012.88,0002.64
2023-09-30 23:39:00,SystemResetWarning,0825.6,5.00,000.00,028.0,026.7,000.0,036.4,029.9,16.7,0000.0,0003.55,0012.62,0002.68
2023-09-30 23:40:00,SystemResetWarning,0825.6,5.01,000.00,028.1,026.9,000.0,036.4,030.0,16.5,0000.0,0003.55,0012.52,0002.73
2023-09-30 23:41:00,SystemResetWarning,0825.7,5.00,000.00,028.1,027.1,000.0,036.4,030.0,16.6,0000.0,0003.58,0012.19,0002.78
2023-09-30 23:42:00,SystemResetWarning,0825.7,5.00,000.00,028.2,027.2,000.0,036.5,030.1,16.5,0000.0,0003.57,0012.74,0002.81
2023-09-30 23:43:00,SystemResetWarning,0825.8,4.98,000.00,028.2,026.3,000.0,036.5,030.1,16.3,0000.0,0003.59,0012.76,0002.84
2023-09-30 23:44:00,SystemResetWarning,0825.7,5.01,000.00,028.1,024.6,000.0,036.4,029.8,16.3,0000.0,0003.63,0012.59,0002.88
2023-09-30 23:45:00,SystemResetWarning,0825.6,5.01,000.00,028.1,024.1,000.0,036.4,029.7,16.6,0000.0,0003.71,0013.24,0002.99
2023-09-30 23:46:00,SystemResetWarning,0825.6,4.98,000.00,028.0,024.4,000.0,036.3,029.5,16.8,0000.0,0003.80,0012.30,0003.11
2023-09-30 23:47:00,SystemResetWarning,0825.6,5.00,000.00,027.9,024.8,000.0,036.3,029.5,16.9,0000.0,0003.89,0012.28,0003.17
2023-09-30 23:48:00,SystemResetWarning,0825.5,5.02,000.00,027.9,025.2,000.0,036.4,029.5,16.8,0000.0,0003.97,0012.42,0003.24
2023-09-30 23:49:00,SystemResetWarning,0825.5,4.99,000.00,027.9,025.6,000.0,036.4,029.6,16.7,0000.0,0003.98,0011.79,0003.30
2023-09-30 23:50:00,SystemResetWarning,0825.5,4.99,000.00,027.9,026.0,000.0,036.4,029.7,16.7,0000.0,0003.98,0011.06,0003.34
2023-09-30 23:51:00,SystemResetWarning,0825.4,5.00,000.00,027.9,026.3,000.0,036.4,029.8,16.7,0000.0,0003.99,0011.28,0003.38
2023-09-30 23:52:00,SystemResetWarning,0825.4,5.00,000.00,028.0,026.6,000.0,036.4,029.8,16.7,0000.0,0004.07,0012.10,0003.43
2023-09-30 23:53:00,SystemResetWarning,0825.3,5.01,000.00,028.0,026.8,000.0,036.4,029.9,16.6,0000.0,0004.10,0011.25,0003.48
2023-09-30 23:54:00,SystemResetWarning,0825.3,5.01,000.00,028.1,027.0,000.0,036.4,030.0,16.5,0000.0,0004.11,0010.20,0003.54
2023-09-30 23:55:00,SystemResetWarning,0825.3,5.00,000.00,028.1,027.2,000.0,036.5,030.1,16.3,0000.0,0004.12,0009.81,0003.58
2023-09-30 23:56:00,SystemResetWarning,0825.3,4.98,000.00,028.2,026.8,000.0,036.5,030.1,16.1,0000.0,0004.11,0008.72,0003.60
2023-09-30 23:57:00,SystemResetWarning,0825.4,5.00,000.00,028.1,025.0,000.0,036.4,029.8,16.1,0000.0,0004.11,0009.04,0003.60
2023-09-30 23:58:00,SystemResetWarning,0825.4,5.00,000.00,028.0,024.0,000.0,036.4,029.6,16.2,0000.0,0004.12,0009.00,0003.60
2023-09-30 23:59:00,SystemResetWarning,0825.4,5.01,000.00,028.0,024.2,000.0,036.3,029.5,16.4,0000.0,0004.09,0008.88,0003.59
